TimeEDT,TemperatureF,Dew PointF,Humidity,Sea Level PressureIn,VisibilityMPH,Wind Direction,Wind SpeedMPH,Gust SpeedMPH,PrecipitationIn,Events,Conditions,WindDirDegrees,DateUTC
12:53 AM,68.0,39.0,35,29.94,10.0,Variable,5.8,-,N/A,,Clear,0,2012-09-23 04:53:00
1:53 AM,64.9,39.9,40,29.96,10.0,WNW,5.8,-,N/A,,Clear,300,2012-09-23 05:53:00
2:53 AM,62.1,41.0,46,29.99,10.0,NNW,6.9,-,N/A,,Clear,330,2012-09-23 06:53:00
3:53 AM,61.0,39.0,44,30.00,10.0,Variable,3.5,-,N/A,,Clear,0,2012-09-23 07:53:00
4:53 AM,57.0,39.0,51,30.03,10.0,NNW,6.9,-,N/A,,Clear,340,2012-09-23 08:53:00
5:53 AM,54.0,37.9,55,30.07,10.0,NNW,4.6,-,N/A,,Clear,340,2012-09-23 09:53:00
6:53 AM,51.1,37.9,61,30.09,10.0,NNW,4.6,-,N/A,,Clear,330,2012-09-23 10:53:00
7:53 AM,52.0,39.0,61,30.12,10.0,North,4.6,-,N/A,,Clear,360,2012-09-23 11:53:00
8:53 AM,57.0,41.0,55,30.14,10.0,Calm,Calm,-,N/A,,Clear,0,2012-09-23 12:53:00
9:53 AM,60.1,39.0,46,30.14,10.0,Variable,4.6,-,N/A,,Clear,0,2012-09-23 13:53:00
10:53 AM,62.1,37.9,41,30.14,10.0,WNW,6.9,-,N/A,,Clear,300,2012-09-23 14:53:00
11:53 AM,63.0,37.0,38,30.14,10.0,Calm,Calm,-,N/A,,Clear,0,2012-09-23 15:53:00
12:53 PM,66.0,36.0,33,30.13,10.0,Variable,4.6,-,N/A,,Clear,0,2012-09-23 16:53:00
1:53 PM,66.9,36.0,32,30.11,10.0,Calm,Calm,-,N/A,,Clear,0,2012-09-23 17:53:00
2:53 PM,68.0,36.0,31,30.09,10.0,Calm,Calm,-,N/A,,Clear,0,2012-09-23 18:53:00
3:53 PM,69.1,36.0,30,30.09,10.0,Calm,Calm,-,N/A,,Clear,0,2012-09-23 19:53:00
4:53 PM,68.0,37.9,33,30.09,10.0,SE,5.8,-,N/A,,Scattered Clouds,130,2012-09-23 20:53:00
5:53 PM,68.0,37.9,33,30.10,10.0,Calm,Calm,-,N/A,,Scattered Clouds,0,2012-09-23 21:53:00
6:53 PM,64.0,43.0,46,30.10,10.0,Calm,Calm,-,N/A,,Mostly Cloudy,0,2012-09-23 22:53:00
7:53 PM,59.0,46.9,64,30.12,10.0,Calm,Calm,-,N/A,,Mostly Cloudy,0,2012-09-23 23:53:00
8:53 PM,57.9,46.9,67,30.14,10.0,NNE,3.5,-,N/A,,Overcast,20,2012-09-24 00:53:00
9:53 PM,57.0,46.9,69,30.16,10.0,North,3.5,-,N/A,,Overcast,350,2012-09-24 01:53:00
10:53 PM,57.0,48.0,72,30.17,10.0,Calm,Calm,-,N/A,,Overcast,0,2012-09-24 02:53:00
11:53 PM,55.0,48.0,77,30.17,10.0,Calm,Calm,-,N/A,,Mostly Cloudy,0,2012-09-24 03:53:00